Weather History for Monarch Pass, CO

Change the Weather History Date:

Saturday, December 7, 2013

  Actual Average (KGUC) Record (KGUC)
Temperature  
Mean Temperature 2 °F -  
Max Temperature 5 °F 27 °F 44 °F (2008)
Min Temperature -2 °F 3 °F -5 °F (2005)
Degree Days  
Heating Degree Days 64    
Moisture  
Dew Point -1 °F    
Average Humidity 83    
Maximum Humidity 92    
Minimum Humidity 78    
Precipitation  
Precipitation 0.00 in - - ()
Sea Level Pressure  
Sea Level Pressure 29.71 in    
Wind  
Wind Speed 22 mph (SSW)    
Max Wind Speed 32 mph    
Max Gust Speed 38 mph    
Averages and records for this station are not official NWS values.
T = Trace of Precipitation, MM = Missing Value Source: NWS Daily Summary

Daily Weather History Graph

Daily Weather History Graph

Search for Another Location

Airport:

Trip Planner

Search our weather history database for the weather conditions in past years. The results will help you decide how hot, cold, wet, or windy it might be!

Date:

Astronomy

Dec. 07, 2013 Rise Set
Actual Time 7:09 AM MST 4:44 PM MST
Civil Twilight 6:40 AM MST 5:13 PM MST
Nautical Twilight 6:06 AM MST 5:46 PM MST
Astronomical Twilight 5:34 AM MST 6:18 PM MST
Moon 10:58 AM MST (12/7) 10:26 PM MST (12/7)
Length of Visible Light 10h 33m
Length of Day
9h 34m
Waxing Crescent, 30% of the Moon is Illuminated
Dec 7
Waxing Crescent
Dec 9
First Quarter
Dec 17
Full
Dec 25
Last Quarter
Jan 1
New

Hourly Weather History & Observations

Time (MST) Temp. Windchill Dew Point Humidity Pressure Visibility Wind Dir Wind Speed Gust Speed Precip Events Conditions
12:17 AM -2.2 °F - -7.6 °F 78% 29.91 in - North - - N/A   Scattered Clouds
12:37 AM -2.2 °F - -5.8 °F 85% 29.90 in - North - - N/A   Unknown
12:57 AM -0.4 °F - -5.8 °F 78% 29.90 in - North - - N/A   Overcast
1:17 AM -0.4 °F - -5.8 °F 78% 29.89 in - North - - N/A   Overcast
1:37 AM -2.2 °F - -7.6 °F 78% 29.88 in - North - - N/A   Mostly Cloudy
1:57 AM -2.2 °F - -5.8 °F 85% 29.89 in - North - - N/A   Unknown
2:17 AM -2.2 °F - -5.8 °F 85% 29.89 in - North - - N/A   Unknown
2:37 AM -0.4 °F - -5.8 °F 78% 29.89 in - North - - N/A   Overcast
2:57 AM -0.4 °F -20.5 °F -5.8 °F 78% 29.88 in - SSW 16.1 mph - N/A   Overcast
3:17 AM -0.4 °F - -5.8 °F 78% 29.88 in - North - - N/A   Unknown
3:37 AM -0.4 °F - -5.8 °F 78% 29.87 in - North - - N/A   Unknown
3:57 AM -0.4 °F -23.3 °F -5.8 °F 78% 29.86 in - SSW 21.9 mph - N/A   Unknown
4:17 AM -0.4 °F - -5.8 °F 78% 29.85 in - North - - N/A   Overcast
4:37 AM -0.4 °F - -4.0 °F 85% 29.84 in - North - - N/A   Unknown
4:57 AM -0.4 °F - -4.0 °F 85% 29.83 in - North - - N/A   Unknown
5:17 AM -0.4 °F - -4.0 °F 85% 29.83 in - North - - N/A   Unknown
5:37 AM -0.4 °F - -4.0 °F 85% 29.82 in - North - - N/A   Unknown
5:57 AM 1.4 °F - -4.0 °F 78% 29.82 in - North - - N/A   Overcast
6:17 AM 1.4 °F - -4.0 °F 78% 29.82 in - North - - N/A   Overcast
6:37 AM 1.4 °F - -4.0 °F 78% 29.81 in - North - - N/A   Overcast
6:57 AM 1.4 °F - -4.0 °F 78% 29.81 in - North - - N/A   Overcast
7:17 AM 1.4 °F - -4.0 °F 78% 29.80 in - North - - N/A   Overcast
7:37 AM 1.4 °F - -4.0 °F 78% 29.80 in - North - - N/A   Overcast
7:57 AM 1.4 °F - -4.0 °F 78% 29.80 in - North - - N/A   Unknown
8:17 AM 1.4 °F - -4.0 °F 78% 29.80 in - North - - N/A   Unknown
8:37 AM 1.4 °F - -2.2 °F 85% 29.79 in - North - - N/A   Unknown
8:57 AM 3.2 °F - -2.2 °F 78% 29.79 in - North - - N/A   Overcast
9:17 AM 3.2 °F - -0.4 °F 85% 29.79 in - North - - N/A   Unknown
9:37 AM 3.2 °F - -0.4 °F 85% 29.80 in - North - - N/A   Overcast
9:57 AM 3.2 °F - -0.4 °F 85% 29.78 in - North - - N/A   Unknown
10:17 AM 5.0 °F -17.9 °F 1.4 °F 85% 29.77 in - SSW 26.5 mph - N/A   Unknown
10:37 AM 5.0 °F - 1.4 °F 85% 29.76 in - North - - N/A   Unknown
10:57 AM 5.0 °F - 1.4 °F 85% 29.76 in - North - - N/A   Unknown
11:17 AM 5.0 °F - 1.4 °F 85% 29.74 in - North - - N/A   Unknown
11:37 AM 5.0 °F -19.7 °F 1.4 °F 85% 29.72 in - SW 32.2 mph 38.0 mph N/A   Unknown
11:57 AM 5.0 °F - 1.4 °F 85% 29.70 in - North - - N/A   Overcast
12:17 PM 5.0 °F - 3.2 °F 92% 29.67 in - North - - N/A   Unknown
12:37 PM 5.0 °F - 1.4 °F 85% 29.66 in - North - - N/A   Overcast
12:57 PM 5.0 °F - 1.4 °F 85% 29.64 in - North - - N/A   Unknown
1:17 PM 5.0 °F - 1.4 °F 85% 29.64 in - North - - N/A   Unknown
1:37 PM 5.0 °F - 1.4 °F 85% 29.62 in - North - - N/A   Unknown
1:57 PM 5.0 °F - 1.4 °F 85% 29.61 in - North - - N/A   Overcast
2:17 PM 5.0 °F - 1.4 °F 85% 29.60 in - North - - N/A   Overcast
2:37 PM 5.0 °F - 1.4 °F 85% 29.61 in - North - - N/A   Overcast
2:57 PM 5.0 °F - 1.4 °F 85% 29.60 in - North - - N/A   Overcast
3:17 PM 5.0 °F - 1.4 °F 85% 29.60 in - North - - N/A   Overcast
3:37 PM 5.0 °F - 1.4 °F 85% 29.60 in - North - - N/A   Overcast
3:57 PM 5.0 °F - 1.4 °F 85% 29.59 in - North - - N/A   Overcast
4:17 PM 5.0 °F - 1.4 °F 85% 29.59 in - North - - N/A   Overcast
4:37 PM 5.0 °F - 1.4 °F 85% 29.60 in - North - - N/A   Unknown
4:57 PM 5.0 °F - 1.4 °F 85% 29.59 in - North - - N/A   Overcast
5:17 PM 5.0 °F - 1.4 °F 85% 29.59 in - North - - N/A   Overcast
5:37 PM 5.0 °F - 1.4 °F 85% 29.60 in - North - - N/A   Overcast
5:57 PM 5.0 °F - 1.4 °F 85% 29.60 in - North - - N/A   Overcast
6:17 PM 5.0 °F - 1.4 °F 85% 29.60 in - North - - N/A   Overcast
6:37 PM 5.0 °F - 1.4 °F 85% 29.61 in - North - - N/A   Overcast
6:57 PM 5.0 °F - 1.4 °F 85% 29.61 in - North - - N/A   Overcast
7:17 PM 5.0 °F - -0.4 °F 78% 29.61 in - North - - N/A   Overcast
7:37 PM 5.0 °F - 1.4 °F 85% 29.61 in - North - - N/A   Overcast
7:57 PM 5.0 °F - 1.4 °F 85% 29.60 in - North - - N/A   Overcast
8:17 PM 5.0 °F - 1.4 °F 85% 29.60 in - North - - N/A   Overcast
8:37 PM 5.0 °F - 1.4 °F 85% 29.59 in - North - - N/A   Overcast
8:57 PM 5.0 °F - 1.4 °F 85% 29.59 in - North - - N/A   Overcast
9:17 PM 5.0 °F - 1.4 °F 85% 29.58 in - North - - N/A   Overcast
9:37 PM 5.0 °F - 1.4 °F 85% 29.58 in - North - - N/A   Overcast
9:57 PM 5.0 °F - 1.4 °F 85% 29.58 in - North - - N/A   Overcast
10:17 PM 5.0 °F - 1.4 °F 85% 29.58 in - North - - N/A   Overcast
10:37 PM 5.0 °F - 1.4 °F 85% 29.57 in - North - - N/A   Overcast
10:57 PM 5.0 °F - 1.4 °F 85% 29.57 in - North - - N/A   Overcast
11:17 PM 5.0 °F - 1.4 °F 85% 29.56 in - North - - N/A   Overcast
11:37 PM 5.0 °F - 1.4 °F 85% 29.55 in - North - - N/A   Overcast
11:57 PM 5.0 °F - 1.4 °F 85% 29.55 in - North - - N/A   Overcast